Tracking 19644 objects as of 25-Apr-2019
HD Live streaming from Space Station
objects crossing your sky now

COSMOS 468 DEB

Track COSMOS 468 DEB now!
10-day predictions


NORAD ID: 37887
Int'l Code: 1971-114F
Perigee: 754.1 km
Apogee: 774.8 km
Inclination: 74.0 °
Period: 100.0 minutes
Semi major axis: 7135 km
RCS: 0.0068 m2 (small)
Launch date: December 17, 1971
Source: Commonwealth of Independent States (former USSR) (CIS)
Launch site: PLESETSK MISSILE AND SPACE COMPLEX (PKMTR)

Note: This is SATELLITE DEBRIS
aabbcc
Your satellite tracking list
Your tracking list is empty




NASA's NSSDC Master Catalog

Two Line Element Set (TLE):
1 37887U 71114F   19114.77136500  .00000050  00000-0  24023-4 0  9992
2 37887  74.0163 255.1855 0014488 200.5233 159.5342 14.40350802883945
Source of the keplerian elements: AFSPC